Location: New Frontier Mobile Home Park
(32.8448°N, 116.9675°W)
Time: 23:12:50
(UTC+00:00)

FREGAT/IRIS - Pass Details

Date: 14 July 2020
Orbit: 320 x 326 km, 96.9° (Epoch: 05 August)

Event Time Altitude Azimuth Distance (km) Brightness Sun altitude
Exits shadow 03:56:12 - 187° (S) 1,739 5.6 -11.4°
Reaches altitude 10° 03:57:22 10° 195° (SSW) 1,259 5.0 -11.6°
Maximum altitude 03:59:49 32° 261° (W) 596 4.0 -12.0°
Drops below altitude 10° 04:02:18 10° 328° (NNW) 1,270 6.4 -12.4°
Sets 04:04:18 0° 339° (NNW) 2,111 7.4 -12.8°
